Location: ???? ???? ?????
(31.2680°N, 31.7283°E)
Time: 09:35:10
(UTC+00:00)

Cosmos 1328 - Pass Details

Date: 13 July 2020
Orbit: 538 x 546 km, 82.5° (Epoch: 07 August)

Event Time Altitude Azimuth Distance (km) Brightness Sun altitude
Rises 17:26:17 0° 171° (S) 2,686 7.0 -5.9°
Reaches altitude 10° 17:28:29 10° 164° (SSE) 1,797 6.0 -6.4°
Maximum altitude 17:32:14 43° 93° (E) 772 4.2 -7.0°
Drops below altitude 10° 17:36:00 10° 21° (NNE) 1,804 6.6 -7.7°
Sets 17:38:13 0° 15° (NNE) 2,698 7.6 -8.1°
